• en Belgique
  • Liste des pays
  • À 7 jours
  • Température de l'eau
  • Carte satellitaire
  • Carte météo
  • Widgets météo
  • user-avatar
    Se connecter

    Météo par heure à Cairns

    Ce jour, 23 Juillet, Dimanche

    Heure Température Précipitation Vent Pression Humidité
    00:00 +20°C° 0 mm 4 m/s 762 mmHg 95%
    01:00 +20°C° 0 mm 4 m/s 762 mmHg 95%
    02:00 +20°C° 0 mm 4 m/s 762 mmHg 95%
    03:00 +20°C° 0 mm 4 m/s 762 mmHg 95%
    04:00 +20°C° 0 mm 3 m/s 762 mmHg 96%
    05:00 +20°C° 0 mm 3 m/s 762 mmHg 96%
    06:00 +20°C° 0 mm 3 m/s 762 mmHg 96%
    07:00 +20°C° 0 mm 4 m/s 762 mmHg 96%
    08:00 +22°C° 0 mm 4 m/s 762 mmHg 88%
    09:00 +25°C° 0 mm 4 m/s 763 mmHg 80%
    10:00 +27°C° 0 mm 4 m/s 763 mmHg 72%
    11:00 +28°C° 0 mm 4 m/s 762 mmHg 68%
    12:00 +29°C° 0 mm 5 m/s 762 mmHg 64%
    13:00 +30°C° 0 mm 5 m/s 761 mmHg 61%
    14:00 +29°C° 0 mm 5 m/s 761 mmHg 63%
    15:00 +29°C° 0 mm 5 m/s 761 mmHg 65%
    16:00 +28°C° 0 mm 5 m/s 760 mmHg 68%
    17:00 +27°C° 0 mm 5 m/s 761 mmHg 75%
    18:00 +25°C° 0 mm 5 m/s 761 mmHg 81%
    19:00 +22°C° 0 mm 4 m/s 761 mmHg 88%
    20:00 +22°C° 0 mm 4 m/s 762 mmHg 90%
    21:00 +22°C° 0 mm 4 m/s 762 mmHg 91%
    22:00 +21°C° 0 mm 4 m/s 762 mmHg 93%
    23:00 +21°C° 0 mm 4 m/s 762 mmHg 92%

    Demain, 24 Juillet, Lundi

    Heure Température Précipitation Vent Pression Humidité
    00:00 +21°C° 0 mm 4 m/s 762 mmHg 91%
    01:00 +21°C° 0 mm 4 m/s 762 mmHg 91%
    02:00 +21°C° 0 mm 5 m/s 762 mmHg 90%
    03:00 +21°C° 0 mm 5 m/s 762 mmHg 90%
    04:00 +21°C° 0 mm 5 m/s 761 mmHg 90%
    05:00 +21°C° 0 mm 5 m/s 762 mmHg 90%
    06:00 +21°C° 0 mm 5 m/s 762 mmHg 90%
    07:00 +21°C° 0 mm 5 m/s 763 mmHg 91%
    08:00 +22°C° 0 mm 5 m/s 763 mmHg 86%
    09:00 +23°C° 0 mm 5 m/s 763 mmHg 82%
    10:00 +24°C° 0 mm 6 m/s 763 mmHg 78%
    11:00 +26°C° 0 mm 6 m/s 763 mmHg 73%
    12:00 +27°C° 0 mm 6 m/s 762 mmHg 69%
    13:00 +28°C° 0 mm 6 m/s 762 mmHg 64%
    14:00 +28°C° 0 mm 6 m/s 761 mmHg 65%
    15:00 +27°C° 0 mm 6 m/s 761 mmHg 67%
    16:00 +27°C° 0 mm 6 m/s 761 mmHg 68%
    17:00 +24°C° 0 mm 6 m/s 761 mmHg 74%
    18:00 +23°C° 0 mm 6 m/s 762 mmHg 80%
    19:00 +21°C° 0 mm 6 m/s 762 mmHg 86%
    20:00 +21°C° 0 mm 6 m/s 763 mmHg 86%
    21:00 +21°C° 0 mm 6 m/s 763 mmHg 86%
    22:00 +21°C° 0 mm 6 m/s 763 mmHg 86%
    23:00 +21°C° 0 mm 6 m/s 763 mmHg 87%

    Après-demain, 25 Juillet, Mardi

    Heure Température Précipitation Vent Pression Humidité
    00:00 +21°C° 0 mm 5 m/s 763 mmHg 88%
    01:00 +20°C° 0 mm 5 m/s 763 mmHg 90%
    02:00 +20°C° 0 mm 5 m/s 763 mmHg 90%
    03:00 +20°C° 0 mm 5 m/s 762 mmHg 91%
    04:00 +20°C° 0 mm 5 m/s 762 mmHg 92%
    05:00 +20°C° 0 mm 5 m/s 762 mmHg 93%
    06:00 +19°C° 0 mm 5 m/s 763 mmHg 93%
    07:00 +19°C° 0 mm 5 m/s 763 mmHg 94%
    08:00 +21°C° 0 mm 6 m/s 763 mmHg 85%
    09:00 +23°C° 0 mm 6 m/s 764 mmHg 76%
    10:00 +26°C° 0 mm 6 m/s 764 mmHg 67%
    11:00 +26°C° 0 mm 6 m/s 763 mmHg 64%
    12:00 +27°C° 0 mm 7 m/s 763 mmHg 61%
    13:00 +28°C° 0 mm 7 m/s 762 mmHg 58%
    14:00 +27°C° 0 mm 7 m/s 762 mmHg 60%
    15:00 +27°C° 0 mm 7 m/s 761 mmHg 62%
    16:00 +26°C° 0 mm 7 m/s 761 mmHg 63%
    17:00 +24°C° 0 mm 6 m/s 761 mmHg 71%
    18:00 +22°C° 0 mm 6 m/s 762 mmHg 78%
    19:00 +21°C° 0 mm 6 m/s 762 mmHg 85%
    20:00 +20°C° 0,1 mm 6 m/s 763 mmHg 87%
    21:00 +20°C° 0,1 mm 6 m/s 763 mmHg 89%
    22:00 +20°C° 0,1 mm 6 m/s 764 mmHg 91%
    23:00 +20°C° 0,1 mm 6 m/s 763 mmHg 92%

    26 Juillet, Mercredi

    Heure Température Précipitation Vent Pression Humidité
    00:00 +20°C° 0,1 mm 5 m/s 763 mmHg 92%
    01:00 +20°C° 0,1 mm 5 m/s 763 mmHg 92%
    02:00 +20°C° 0,1 mm 5 m/s 763 mmHg 92%
    03:00 +20°C° 0,1 mm 5 m/s 762 mmHg 93%
    04:00 +20°C° 0,1 mm 5 m/s 762 mmHg 93%
    05:00 +20°C° 0,1 mm 5 m/s 762 mmHg 93%
    06:00 +20°C° 0,1 mm 5 m/s 763 mmHg 94%
    07:00 +20°C° 0,1 mm 5 m/s 763 mmHg 94%
    08:00 +21°C° 0,1 mm 6 m/s 763 mmHg 89%
    09:00 +22°C° 0,1 mm 6 m/s 764 mmHg 85%
    10:00 +23°C° 0,1 mm 6 m/s 764 mmHg 80%
    11:00 +24°C° 0,1 mm 6 m/s 763 mmHg 75%
    12:00 +26°C° 0,1 mm 6 m/s 763 mmHg 69%
    13:00 +27°C° 0,1 mm 6 m/s 762 mmHg 64%
    14:00 +26°C° 0 mm 6 m/s 762 mmHg 66%
    15:00 +26°C° 0 mm 6 m/s 762 mmHg 68%
    16:00 +26°C° 0 mm 6 m/s 761 mmHg 71%
    17:00 +23°C° 0,1 mm 6 m/s 762 mmHg 77%
    18:00 +22°C° 0,1 mm 6 m/s 762 mmHg 83%
    19:00 +21°C° 0,1 mm 5 m/s 763 mmHg 89%
    20:00 +21°C° 0,1 mm 6 m/s 763 mmHg 90%
    21:00 +21°C° 0,1 mm 6 m/s 763 mmHg 91%
    22:00 +21°C° 0,1 mm 6 m/s 764 mmHg 92%
    23:00 +21°C° 0,1 mm 6 m/s 763 mmHg 93%

    27 Juillet, Jeudi

    Heure Température Précipitation Vent Pression Humidité
    00:00 +20°C° 0,1 mm 6 m/s 763 mmHg 93%
    01:00 +20°C° 0,1 mm 6 m/s 763 mmHg 94%
    02:00 +20°C° 0,1 mm 6 m/s 762 mmHg 94%
    03:00 +19°C° 0,1 mm 6 m/s 762 mmHg 95%
    04:00 +19°C° 0,1 mm 6 m/s 762 mmHg 96%
    05:00 +19°C° 0,2 mm 6 m/s 762 mmHg 96%
    06:00 +20°C° 0,2 mm 6 m/s 763 mmHg 96%
    07:00 +20°C° 0,2 mm 6 m/s 763 mmHg 96%
    08:00 +21°C° 0,2 mm 6 m/s 764 mmHg 92%
    09:00 +22°C° 0,2 mm 6 m/s 764 mmHg 88%
    10:00 +23°C° 0,2 mm 6 m/s 764 mmHg 84%
    11:00 +24°C° 0 mm 6 m/s 764 mmHg 77%
    12:00 +26°C° 0 mm 6 m/s 763 mmHg 70%
    13:00 +28°C° 0 mm 6 m/s 762 mmHg 63%
    14:00 +27°C° 0,1 mm 6 m/s 762 mmHg 64%
    15:00 +27°C° 0,1 mm 7 m/s 762 mmHg 65%
    16:00 +27°C° 0,1 mm 7 m/s 762 mmHg 66%
    17:00 +26°C° 0,1 mm 7 m/s 762 mmHg 74%
    18:00 +23°C° 0,1 mm 6 m/s 763 mmHg 82%
    19:00 +22°C° 0,1 mm 6 m/s 763 mmHg 90%
    20:00 +21°C° 0,1 mm 6 m/s 764 mmHg 89%
    21:00 +21°C° 0,1 mm 7 m/s 764 mmHg 89%
    22:00 +21°C° 0,1 mm 7 m/s 764 mmHg 88%
    23:00 +21°C° 0,1 mm 6 m/s 764 mmHg 90%

    28 Juillet, Vendredi

    Heure Température Précipitation Vent Pression Humidité
    00:00 +20°C° 0,1 mm 6 m/s 764 mmHg 92%
    01:00 +20°C° 0,1 mm 6 m/s 763 mmHg 94%
    02:00 +20°C° 0,1 mm 6 m/s 763 mmHg 93%
    03:00 +20°C° 0,1 mm 6 m/s 763 mmHg 91%
    04:00 +20°C° 0,1 mm 6 m/s 763 mmHg 90%
    05:00 +20°C° 0,1 mm 6 m/s 763 mmHg 91%
    06:00 +20°C° 0,1 mm 6 m/s 764 mmHg 92%
    07:00 +19°C° 0,1 mm 6 m/s 764 mmHg 93%
    08:00 +21°C° 0 mm 6 m/s 764 mmHg 85%
    09:00 +22°C° 0 mm 6 m/s 764 mmHg 78%
    10:00 +24°C° 0 mm 6 m/s 764 mmHg 71%
    11:00 +26°C° 0 mm 6 m/s 764 mmHg 66%
    12:00 +27°C° 0 mm 6 m/s 763 mmHg 62%
    13:00 +28°C° 0 mm 7 m/s 762 mmHg 57%
    14:00 +27°C° 0 mm 6 m/s 762 mmHg 59%
    15:00 +27°C° 0 mm 6 m/s 762 mmHg 61%
    16:00 +26°C° 0 mm 6 m/s 762 mmHg 62%
    17:00 +24°C° 0 mm 6 m/s 762 mmHg 71%
    18:00 +22°C° 0 mm 6 m/s 763 mmHg 79%
    19:00 +20°C° 0 mm 5 m/s 763 mmHg 88%
    20:00 +20°C° 0 mm 5 m/s 764 mmHg 89%
    21:00 +20°C° 0 mm 5 m/s 764 mmHg 90%
    22:00 +19°C° 0 mm 5 m/s 764 mmHg 92%
    23:00 +19°C° 0,1 mm 5 m/s 764 mmHg 92%
    Voir plus